Theta_e
327 338 338 328 308 305 298 300 307 306 305 308 311 309 308 312 316 311 335 339 342 339 343 346 347 349 350 350 349 349 347 345 345 345 345 346 347 346 347 346 345 346 342 340 339 338 336 334 334
322 326 332 321 303 296 296 305 304 308 311 311 308 308 309 313 327 329 332 341 342 339 340 343 344 348 349 349 349 348 347 347 346 347 345 346 346 346 345 345 345 342 340 339 338 338 337 335 334
319 326 319 308 302 296 298 305 307 311 314 309 307 313 311 320 329 331 337 342 341 339 338 341 343 347 348 348 348 348 347 347 346 347 346 346 346 345 345 344 342 340 339 339 338 337 337 336 335
313 318 315 302 298 304 304 308 310 310 312 314 314 311 326 333 330 335 340 343 341 338 339 340 344 347 347 347 347 348 347 345 347 347 346 346 345 344 344 344 343 342 338 338 338 338 337 336 335
315 307 298 300 301 304 308 310 311 309 310 311 313 314 321 331 337 336 341 342 340 339 338 341 343 344 346 347 347 347 348 345 346 346 345 345 344 344 344 343 341 341 337 335 336 337 337 336 335
307 306 293 294 301 306 309 311 310 310 311 312 311 315 323 333 332 335 341 341 342 337 337 341 338 341 344 345 345 345 345 345 344 344 343 343 342 342 341 341 340 337 335 333 333 332 331 330 329
307 301 295 296 299 304 308 311 308 309 313 313 317 312 324 328 332 338 341 342 340 337 335 339 342 339 337 339 340 341 342 342 342 342 341 339 339 340 339 338 337 333 332 332 330 329 328 327 326
309 305 298 298 296 301 310 311 311 309 309 320 322 314 318 328 334 338 339 340 337 336 333 336 340 341 340 339 334 335 337 338 338 337 334 332 331 332 332 330 331 332 332 330 329 328 327 327 327
313 300 296 297 298 302 310 309 312 312 309 317 321 322 329 332 334 336 336 335 335 334 332 333 337 338 339 339 331 331 332 333 332 331 328 326 327 328 327 328 332 334 332 330 328 327 327 327 326
304 299 299 305 305 304 308 310 309 307 308 315 322 328 331 331 331 332 331 330 333 333 329 330 334 336 338 339 336 335 333 333 332 332 329 328 326 326 329 326 328 330 329 330 328 327 326 323 320
304 298 304 304 306 308 307 307 311 305 305 311 316 324 327 329 328 331 331 330 332 333 329 328 330 334 336 336 336 335 332 329 328 329 328 327 327 325 327 326 325 324 321 322 325 324 321 320 319
299 303 305 306 307 305 305 309 307 304 305 309 317 327 327 326 326 328 329 330 332 333 329 328 328 330 333 336 336 334 332 330 326 326 327 326 325 323 325 325 325 323 320 322 322 322 322 320 321
298 302 305 307 307 306 307 304 304 306 307 310 319 327 325 324 325 327 329 331 333 333 332 328 327 326 330 334 335 336 334 332 327 326 328 327 325 324 324 325 323 323 322 322 322 321 321 320 321
301 302 304 305 305 306 303 304 305 305 310 307 316 324 325 326 326 326 327 329 331 332 332 332 330 328 332 332 335 335 335 331 328 328 327 327 326 325 324 323 323 323 323 323 322 321 320 319 321
299 297 301 303 304 303 305 300 301 304 308 308 310 321 324 326 326 327 328 328 331 332 333 332 331 332 330 330 334 336 335 331 328 328 328 327 328 326 325 324 322 322 323 323 322 322 321 321 323
293 293 291 300 303 303 302 294 304 305 305 305 309 317 322 325 326 328 331 331 332 331 331 332 332 332 330 329 331 334 334 331 329 330 328 328 328 328 325 326 326 326 324 324 325 324 323 322 320
289 285 288 295 303 301 299 296 302 303 304 305 309 313 319 323 325 327 330 330 329 329 329 330 331 331 331 330 329 328 333 331 331 331 331 328 328 328 328 328 328 327 326 326 326 326 324 321 320
284 285 289 292 298 300 296 296 301 303 300 305 308 312 317 317 317 321 327 330 330 329 330 330 330 331 332 330 330 328 333 333 332 331 331 332 330 330 329 330 329 330 328 326 325 323 324 322 321
291 287 288 291 295 297 295 296 299 302 300 297 307 309 314 310 311 314 315 314 328 329 328 328 328 328 330 329 329 327 326 331 332 332 333 333 331 331 330 329 328 328 326 326 325 324 322 322 323
290 286 285 290 294 293 294 295 300 300 297 295 296 306 306 305 304 305 307 308 309 311 316 326 327 328 329 329 328 330 329 331 332 332 332 333 331 330 330 329 328 328 326 326 324 323 321 321 323
289 288 287 287 291 293 292 291 295 298 298 297 298 301 304 303 300 300 299 300 306 306 309 314 319 325 330 331 330 329 330 330 330 329 329 331 333 332 331 330 330 329 327 325 324 324 321 319 322
286 294 291 289 287 283 292 283 291 294 295 294 296 294 294 296 297 297 297 296 298 302 308 310 311 314 317 324 329 327 326 326 327 327 330 331 333 332 332 331 330 329 328 326 326 325 324 322 320
289 293 291 290 288 286 286 283 290 294 292 291 292 291 291 292 292 293 295 296 297 299 301 304 305 309 310 314 318 327 326 327 327 327 327 329 331 332 331 331 330 328 327 327 326 325 324 324 322
294 291 290 289 287 279 285 284 281 290 292 291 291 291 290 290 291 291 293 294 295 297 298 300 301 302 306 307 308 312 315 319 321 323 325 325 327 325 325 327 327 328 327 326 326 326 325 325 324
291 286 277 275 277 277 287 282 280 287 290 294 289 289 290 289 289 290 290 291 291 293 296 298 298 298 300 301 302 304 305 308 309 311 316 321 322 319 316 318 316 316 317 316 318 318 315 314 315
288 286 280 274 275 275 282 279 281 288 290 293 291 289 289 289 288 288 289 289 290 291 292 294 296 297 299 299 298 299 301 302 302 302 305 305 308 308 309 310 310 309 309 309 309 307 306 305 304
286 281 286 280 276 276 280 281 286 288 288 288 288 289 288 287 287 287 288 288 288 289 290 292 294 296 297 298 298 297 297 297 298 298 300 301 301 303 303 304 304 304 304 304 302 301 299 298 298
288 288 278 280 269 270 278 278 279 285 286 287 286 288 287 287 287 287 287 287 288 289 289 290 292 293 294 296 296 296 295 295 295 295 295 295 296 298 300 300 300 299 299 298 297 295 294 293 292
285 281 283 282 279 276 273 275 286 286 287 287 287 287 287 287 286 286 287 287 288 288 289 289 290 291 291 292 293 293 292 293 293 292 292 292 293 294 295 295 295 294 294 293 292 291 290 289 289
289 286 285 278 274 278 279 278 288 288 288 288 286 287 286 286 286 286 287 287 288 288 288 288 289 289 290 291 291 291 290 291 290 289 289 290 289 290 291 291 290 290 290 289 289 287 287 287 286
Wind_Speed
12 4 3 3 3 6 12 13 13 10 7 7 9 3 4 3 5 6 8 8 22 16 16 15 17 16 16 15 16 14 14 14 15 14 14 13 15 16 18 19 17 18 17 17 17 17 17 15 15
11 5 2 4 5 10 10 15 19 11 5 6 5 3 8 4 7 7 8 16 20 17 14 14 15 16 15 15 15 14 13 12 13 14 15 13 15 16 17 17 16 16 16 16 16 16 16 15 14
10 2 2 4 9 14 10 15 16 10 8 2 5 1 7 6 7 11 10 22 20 16 13 13 14 15 15 14 14 14 13 12 16 15 16 15 15 16 15 16 14 15 14 15 15 15 15 14 13
5 3 3 7 14 14 15 17 5 8 9 8 8 6 7 6 7 7 15 21 18 15 14 14 15 15 15 14 13 14 13 14 16 15 15 17 15 16 14 15 15 15 15 14 14 14 14 12 12
4 3 1 8 16 13 16 18 2 9 10 7 8 1 7 3 11 12 20 18 18 14 15 12 13 14 13 14 13 14 14 15 16 16 15 15 16 15 15 15 14 13 16 13 13 13 13 12 10
3 0 3 16 14 18 14 18 2 9 4 12 11 11 4 4 5 11 18 16 16 16 15 13 11 11 13 12 12 12 13 15 16 16 15 15 14 14 14 15 14 14 13 12 12 12 11 11 9
5 5 11 13 15 19 20 4 7 8 2 4 4 3 6 4 5 13 14 15 16 16 14 12 11 11 11 12 12 12 13 14 16 15 14 13 11 11 13 10 11 11 11 11 11 10 9 8 7
5 4 16 15 14 20 19 12 11 7 5 3 7 5 3 9 7 9 10 13 16 14 13 12 11 11 9 9 12 13 12 13 13 12 12 11 12 12 12 10 11 11 10 9 9 8 7 6 5
4 9 10 18 24 18 15 7 11 2 2 3 3 5 9 14 9 13 9 13 13 12 13 11 12 12 11 9 9 11 12 12 12 10 11 10 5 7 8 11 11 10 8 8 7 6 4 3 4
7 11 18 8 18 19 21 4 8 4 6 5 11 14 23 11 12 15 16 14 15 14 14 11 12 12 12 9 9 8 8 7 6 6 7 4 6 6 9 8 10 9 7 7 6 4 4 5 4
11 17 5 16 20 10 19 18 16 4 6 6 12 18 20 14 9 11 12 13 13 15 11 13 10 12 12 10 6 5 4 4 5 7 6 4 6 6 5 4 3 4 6 4 5 5 3 2 3
12 19 14 9 3 2 9 12 17 6 3 5 3 21 18 16 13 14 11 12 11 10 10 15 10 9 10 8 6 5 4 4 4 5 6 4 4 4 5 4 5 5 4 5 5 3 3 2 1
26 16 22 8 12 5 9 11 10 9 3 7 2 17 14 15 14 8 11 11 12 12 11 13 11 6 8 9 7 5 5 4 5 5 5 4 5 4 4 5 5 4 4 3 3 2 2 2 2
11 19 20 17 10 11 6 9 5 6 5 6 3 11 17 13 13 10 13 15 12 9 7 6 7 9 8 6 6 5 5 4 5 5 4 6 5 4 3 3 3 3 4 2 2 2 1 1 2
17 13 12 20 17 8 7 13 6 4 5 11 4 7 9 11 11 13 11 14 13 10 10 6 6 6 9 8 6 5 5 4 5 5 6 5 6 5 4 4 3 3 3 3 2 1 2 1 2
12 11 22 16 18 8 13 15 11 6 6 4 1 5 7 12 13 10 10 12 12 12 11 10 6 6 5 7 5 5 6 4 5 5 5 6 5 6 4 4 4 4 4 3 3 1 1 2 2
10 7 6 18 23 10 11 7 3 3 5 6 5 8 10 9 11 7 12 10 10 11 10 10 10 8 6 4 5 4 7 4 5 5 6 6 6 6 5 4 4 4 3 4 3 1 3 2 1
6 7 13 11 20 16 19 9 4 4 3 12 6 10 8 7 7 10 5 11 11 10 10 9 8 9 7 4 6 2 2 3 2 5 5 7 5 4 3 3 3 3 3 3 2 2 2 2 1
10 8 6 2 6 17 19 11 7 7 5 7 10 4 8 8 6 8 11 12 9 9 10 8 7 8 6 4 4 5 4 4 3 3 6 6 6 5 4 3 3 3 3 3 3 2 3 2 2
13 11 5 7 9 7 10 13 9 9 3 7 9 10 9 6 9 10 12 12 12 10 10 5 8 6 7 5 3 2 3 2 4 4 5 5 7 6 5 5 5 5 3 4 4 4 2 3 3
11 14 11 6 10 12 10 4 10 3 5 4 8 12 11 10 8 8 11 11 9 10 10 8 6 4 4 4 2 2 1 1 2 3 3 5 8 8 8 8 6 6 5 4 5 5 6 3 3
9 14 14 18 6 4 3 6 9 7 7 4 8 9 9 9 9 7 7 11 9 9 7 7 8 8 7 4 4 4 4 5 4 5 4 6 7 7 6 6 6 6 5 5 5 4 4 4 4
3 17 16 19 9 10 5 5 2 16 9 9 9 11 7 7 10 10 11 11 8 9 8 6 6 7 8 6 4 4 5 3 2 3 6 5 5 5 5 4 4 4 4 4 5 4 4 3 2
16 14 13 6 5 3 7 3 3 4 6 11 9 11 8 7 9 10 11 10 9 10 9 9 8 7 7 7 8 7 7 5 4 6 3 2 4 4 3 2 1 2 3 3 3 5 5 4 4
13 4 5 3 3 4 12 7 5 7 8 8 14 9 8 10 9 8 8 7 8 8 8 7 7 7 7 8 8 8 8 7 7 6 4 5 2 2 4 3 4 3 4 4 4 5 5 4 2
8 5 2 5 4 5 5 3 3 6 7 9 12 9 5 8 10 8 6 8 9 8 9 8 5 6 7 9 9 7 9 4 5 7 6 6 5 5 6 6 5 6 6 5 5 5 5 6 6
3 3 4 5 4 6 5 5 5 6 6 9 10 8 5 5 8 7 6 9 8 4 10 6 5 5 8 10 9 9 10 10 8 8 8 5 5 4 6 7 7 7 7 7 7 6 7 7 6
6 2 3 5 4 5 3 5 4 5 6 6 9 7 7 3 4 4 4 7 6 7 6 3 7 10 11 9 8 8 7 8 7 7 7 7 7 7 8 8 8 7 7 9 8 7 7 8 6
5 4 4 4 2 3 4 3 5 6 5 6 7 7 8 6 3 3 3 4 5 6 6 6 9 10 10 9 8 7 7 8 7 7 7 7 7 7 8 8 9 8 8 9 9 9 8 10 8
6 3 6 2 4 2 3 4 5 6 7 8 8 7 6 7 6 4 5 4 6 7 7 7 7 9 7 6 7 6 7 8 8 7 7 7 8 7 8 8 8 9 9 9 9 9 8 9 9
Wind_Direction
333 281 306 294 230 235 225 236 264 273 270 224 218 315 280 312 355 127 134 118 128 134 139 142 141 143 140 135 135 136 132 134 136 128 127 121 112 106 111 107 106 99 100 101 96 98 93 91 88
324 337 349 277 235 217 227 234 240 248 252 280 209 208 278 88 85 140 101 129 127 131 144 143 141 144 140 138 140 137 138 143 137 134 125 121 119 108 104 105 100 97 98 100 99 101 99 96 91
1 61 287 224 235 233 223 240 242 213 107 231 177 72 253 78 110 137 131 131 127 134 150 141 139 143 142 144 142 143 143 138 134 124 119 119 117 114 110 106 103 101 98 96 100 106 100 97 92
37 354 276 246 237 227 240 242 319 191 172 172 185 173 81 26 136 112 133 130 133 142 132 138 142 146 145 149 148 148 139 137 129 124 116 111 116 112 107 104 104 104 99 94 95 109 104 99 92
54 101 228 244 243 240 236 250 288 274 165 183 225 226 100 22 89 135 126 132 131 140 128 142 142 147 149 151 151 142 135 136 127 119 116 113 112 115 113 115 112 114 103 97 95 92 91 94 88
146 2 209 239 242 245 245 246 238 265 246 190 201 152 148 27 134 143 131 133 131 130 137 140 133 133 131 135 134 138 138 136 124 118 116 114 117 119 117 117 122 101 105 108 104 99 94 90 86
239 158 212 233 248 222 238 198 228 248 241 309 127 228 147 140 242 114 129 129 130 133 136 141 137 129 118 121 119 119 124 128 120 118 114 108 104 126 109 114 109 115 120 115 109 104 98 94 85
174 222 228 212 251 249 230 202 223 216 232 102 338 94 134 166 163 122 133 133 133 131 139 146 143 141 136 131 118 115 113 110 113 114 114 111 104 97 98 95 128 115 119 115 109 103 100 95 86
245 222 227 204 224 257 243 207 224 43 186 154 124 100 93 144 155 146 140 140 130 140 147 153 148 152 146 131 126 115 115 115 114 120 129 136 123 127 130 111 110 116 118 118 114 110 113 133 161
215 211 223 193 213 240 272 268 192 166 233 143 97 95 122 179 166 158 162 149 146 152 151 155 161 158 148 141 145 133 132 137 135 134 166 177 149 134 117 115 122 127 132 133 133 146 197 217 214
192 238 196 218 226 251 276 289 250 169 219 199 160 135 148 157 174 171 168 151 147 151 151 152 173 157 150 143 157 147 158 152 144 145 186 182 119 122 119 126 137 144 173 174 169 196 224 211 22
225 229 212 212 132 208 239 294 260 150 152 336 280 146 149 148 188 173 166 158 148 152 162 154 172 160 145 144 153 151 155 147 143 163 197 119 118 142 140 161 171 173 183 204 195 176 85 2 177
235 250 209 214 166 198 312 267 267 205 180 26 1 139 144 163 185 177 165 156 154 165 164 163 159 158 137 137 144 156 153 155 150 161 157 145 144 177 167 171 157 166 177 162 160 134 150 184 229
263 223 227 181 185 206 243 258 293 252 129 43 328 165 158 178 179 172 176 163 156 163 157 140 141 156 118 112 127 152 152 163 140 143 162 170 147 165 151 137 150 157 140 172 113 102 65 222 143
256 226 226 184 153 171 166 260 228 292 154 194 343 230 166 166 178 190 171 167 158 164 149 153 134 99 134 141 144 148 172 154 143 146 166 176 140 160 150 146 159 163 145 120 101 144 197 273 22
231 254 205 195 169 177 156 229 235 184 174 168 158 221 222 172 171 176 170 158 148 148 148 159 161 125 138 144 168 172 180 158 152 151 154 168 161 164 175 157 170 176 142 169 185 190 105 100 18
207 269 204 174 174 153 159 181 323 167 181 173 184 246 206 149 147 170 154 149 147 145 142 155 148 148 165 201 153 222 171 160 168 146 158 174 182 180 167 174 174 162 165 181 177 138 137 191 220
222 222 171 191 178 161 176 167 132 0 312 195 184 278 190 98 70 64 101 142 149 145 152 145 144 152 169 216 156 210 167 187 179 151 162 173 173 168 156 109 104 136 143 155 149 164 178 214 244
177 156 165 74 82 149 175 161 152 61 14 48 170 61 83 91 28 55 61 39 121 127 143 147 152 163 164 198 157 174 177 176 216 182 179 163 145 163 164 157 161 154 162 178 188 191 203 248 224
230 151 118 84 91 81 161 178 140 107 52 30 11 119 100 73 61 36 55 50 46 43 41 109 168 172 173 192 164 154 149 166 184 189 199 164 163 161 171 171 188 187 179 199 193 176 188 221 179
223 184 158 123 97 71 108 160 151 122 113 52 63 64 82 95 70 54 54 40 44 44 30 35 38 55 159 157 114 111 102 191 201 232 200 182 174 181 181 189 192 184 175 195 193 187 198 208 227
193 175 129 131 119 124 224 152 186 142 135 93 117 70 61 68 81 59 62 56 27 24 34 27 30 35 31 27 167 196 195 199 219 218 189 180 185 181 178 179 189 185 182 196 200 196 198 186 222
161 135 133 141 144 132 173 96 126 142 170 151 101 96 69 70 63 52 64 65 30 23 32 21 43 43 22 28 25 194 196 255 299 262 183 152 151 147 152 172 189 189 183 196 207 198 207 213 218
146 123 108 78 153 87 162 102 173 143 184 143 106 109 118 94 82 62 53 57 38 23 30 19 35 31 28 36 27 36 43 15 3 2 344 229 123 99 48 68 287 248 250 260 246 220 203 209 225
144 202 104 99 60 75 131 82 93 92 49 148 138 112 125 112 93 87 70 64 62 59 37 29 29 26 37 38 39 32 31 44 43 18 20 14 78 32 93 75 67 55 52 48 48 44 37 24 21
151 19 8 111 132 108 4 114 103 82 86 73 113 102 82 100 98 86 87 85 58 37 38 34 30 47 45 43 38 32 47 43 53 33 48 37 31 29 43 49 52 55 51 61 60 65 61 54 51
229 81 293 100 44 87 160 102 116 126 115 123 126 132 127 71 94 97 97 80 66 72 42 24 15 46 51 47 47 34 35 46 41 42 48 46 36 49 52 53 60 55 56 61 66 65 64 65 59
50 33 47 15 98 96 215 116 96 176 138 136 138 156 145 140 123 101 77 90 91 58 66 13 43 37 37 37 36 40 31 47 41 47 55 48 39 44 59 64 63 57 61 66 69 65 62 71 58
12 26 32 100 53 126 140 76 17 57 135 147 116 132 149 154 144 112 101 61 73 70 61 52 48 41 36 27 35 36 36 44 44 47 45 50 50 46 57 63 65 64 67 72 81 78 76 79 70
25 34 15 59 301 26 81 82 58 68 74 105 111 114 105 115 127 118 98 101 71 55 41 46 61 56 36 39 37 47 44 54 46 46 50 52 56 50 63 67 73 71 65 67 75 83 76 76 73